Weather History for Mt. Pocono, PA

Change the Weather History Date:

Monday, June 17, 2013

  Actual Average Record
Temperature  
Mean Temperature 69 °F 64 °F  
Max Temperature 79 °F 74 °F 91 °F (1952)
Min Temperature 58 °F 55 °F 29 °F (1908)
Degree Days  
Heating Degree Days 0 3  
Month to date heating degree days 68 77  
Since 1 June heating degree days 68 77  
Since 1 July heating degree days 6820 7093  
Cooling Degree Days 4 2  
Month to date cooling degree days 21 26  
Year to date cooling degree days 53 45  
Since 1 June cooling degree days 21 26  
Growing Degree Days 19 (Base 50)    
Moisture  
Dew Point 58 °F    
Average Humidity 63    
Maximum Humidity 93    
Minimum Humidity 32    
Precipitation  
Precipitation 0.00 in 0.13 in 2.44 in (1906)
Month to date precipitation 7.04 2.84  
Year to date precipitation 21.05 20.34  
Sea Level Pressure  
Sea Level Pressure 29.93 in    
Wind  
Wind Speed 8 mph (WNW)    
Max Wind Speed 20 mph    
Max Gust Speed 29 mph    
Visibility 7 miles    
Events Fog    
T = Trace of Precipitation, MM = Missing Value Source: NWS Daily Summary

Daily Weather History Graph

Daily Weather History Graph

Search for Another Location

Airport:

Trip Planner

Search our weather history database for the weather conditions in past years. The results will help you decide how hot, cold, wet, or windy it might be!

Date:

Astronomy

Jun. 17, 2013 Rise Set
Actual Time 5:28 AM EDT 8:36 PM EDT
Civil Twilight 4:54 AM EDT 9:10 PM EDT
Nautical Twilight 4:11 AM EDT 9:53 PM EDT
Astronomical Twilight 3:20 AM EDT 10:45 PM EDT
Moon 2:10 PM EDT (6/17) 1:06 AM EDT (6/17)
Length of Visible Light 16h 15m
Length of Day
15h 08m
First Quarter, 60% of the Moon is Illuminated
Jun 17
First Quarter
Jun 23
Full
Jun 30
Last Quarter
Jul 8
New
Jul 15
First Quarter

Hourly Weather History & Observations

Time (EDT) Temp. Dew Point Humidity Pressure Visibility Wind Dir Wind Speed Gust Speed Precip Events Conditions
12:53 AM 64.0 °F 61.0 °F 90% 29.91 in 10.0 mi WNW 8.1 mph - N/A   Clear
1:53 AM 64.0 °F 61.0 °F 90% 29.90 in 10.0 mi WNW 9.2 mph - N/A   Clear
2:53 AM 63.0 °F 61.0 °F 93% 29.90 in 6.0 mi West 9.2 mph - N/A   Clear
3:53 AM 63.0 °F 61.0 °F 93% 29.90 in 5.0 mi WNW 8.1 mph - N/A   Partly Cloudy
4:53 AM 62.1 °F 60.1 °F 93% 29.91 in 3.0 mi WNW 4.6 mph - N/A   Clear
5:18 AM 60.8 °F 60.8 °F 100% 29.94 in 2.5 mi NW 3.5 mph - N/A   Partly Cloudy
5:27 AM 60.8 °F 59.0 °F 94% 29.94 in 1.2 mi West 3.5 mph - N/A   Mostly Cloudy
5:37 AM 60.8 °F 59.0 °F 94% 29.94 in 0.5 mi West 3.5 mph - N/A Fog Fog
5:53 AM 62.1 °F 60.1 °F 93% 29.92 in 1.2 mi West 5.8 mph - N/A   Mostly Cloudy
6:10 AM 62.6 °F 60.8 °F 94% 29.95 in 1.5 mi WNW 4.6 mph - N/A   Partly Cloudy
6:48 AM 62.6 °F 60.8 °F 94% 29.96 in 2.0 mi WNW 5.8 mph - N/A   Partly Cloudy
6:53 AM 63.0 °F 61.0 °F 93% 29.93 in 2.0 mi West 5.8 mph - N/A   Partly Cloudy
7:22 AM 64.4 °F 62.6 °F 94% 29.96 in 3.0 mi West 6.9 mph - N/A   Partly Cloudy
7:49 AM 64.4 °F 62.6 °F 94% 29.97 in 5.0 mi West 9.2 mph - N/A   Mostly Cloudy
7:53 AM 64.9 °F 62.1 °F 90% 29.94 in 5.0 mi West 9.2 mph - N/A   Overcast
8:53 AM 68.0 °F 62.1 °F 81% 29.94 in 8.0 mi West 11.5 mph - N/A   Mostly Cloudy
9:49 AM 69.8 °F 62.6 °F 78% 29.96 in 8.0 mi Variable 6.9 mph - N/A   Scattered Clouds
9:53 AM 71.1 °F 62.1 °F 73% 29.93 in 9.0 mi West 9.2 mph - N/A   Scattered Clouds
10:53 AM 73.9 °F 59.0 °F 59% 29.92 in 10.0 mi West 8.1 mph 18.4 mph N/A   Partly Cloudy
11:53 AM 75.9 °F 55.9 °F 50% 29.93 in 10.0 mi West 15.0 mph 23.0 mph N/A   Scattered Clouds
12:53 PM 75.9 °F 53.1 °F 45% 29.93 in 10.0 mi West 13.8 mph 21.9 mph N/A   Partly Cloudy
1:53 PM 78.1 °F 46.9 °F 33% 29.91 in 10.0 mi WNW 11.5 mph 25.3 mph N/A   Clear
2:53 PM 78.1 °F 46.9 °F 33% 29.91 in 10.0 mi WNW 13.8 mph 23.0 mph N/A   Clear
3:53 PM 78.1 °F 51.1 °F 39% 29.89 in 10.0 mi West 11.5 mph 20.7 mph N/A   Clear
4:53 PM 78.1 °F 53.1 °F 42% 29.89 in 10.0 mi West 10.4 mph 17.3 mph N/A   Clear
5:53 PM 77.0 °F 55.0 °F 47% 29.90 in 10.0 mi West 12.7 mph - N/A   Partly Cloudy
6:53 PM 75.0 °F 55.9 °F 51% 29.91 in 10.0 mi WNW 5.8 mph - N/A   Clear
7:53 PM 72.0 °F 55.9 °F 57% 29.91 in 10.0 mi West 3.5 mph - N/A   Clear
8:53 PM 66.9 °F 57.9 °F 73% 29.92 in 10.0 mi Calm Calm - N/A   Clear
9:53 PM 64.9 °F 57.0 °F 75% 29.94 in 10.0 mi Calm Calm - N/A   Overcast
10:53 PM 61.0 °F 55.9 °F 83% 29.94 in 10.0 mi Calm Calm - N/A   Clear
11:53 PM 57.9 °F 55.0 °F 90% 29.95 in 10.0 mi NW 3.5 mph - N/A   Clear